Location: Austin
(30.3000°N, 97.7500°W)
Time: 02:23:47
(UTC-06:00)

Cosmos 2227 Rocket - Pass Details

Date: 20 November 2023
Orbit: 839 x 843 km, 71.0° (Epoch: 04 December)

Event Time Altitude Azimuth Distance (km) Brightness Sun altitude
Rises 19:01:20 0° 201° (SSW) 3,384 5.8 -19.2°
Reaches altitude 10° 19:03:46 10° 202° (SSW) 2,452 5.0 -19.7°
Maximum altitude 19:09:24 81° 289° (WNW) 855 2.2 -20.9°
Enters shadow 19:13:44 18° 16° (NNE) 1,964 3.8 -21.8°
